AKDT,Max TemperatureF,Mean TemperatureF,Min TemperatureF,Max Dew PointF,MeanDew PointF,Min DewpointF,Max Humidity, Mean Humidity, Min Humidity, Max Sea Level PressureIn, Mean Sea Level PressureIn, Min Sea Level PressureIn, Max VisibilityMiles, Mean VisibilityMiles, Min VisibilityMiles, Max Wind SpeedMPH, Mean Wind SpeedMPH, Max Gust SpeedMPH,PrecipitationIn, CloudCover, Events, WindDirDegrees
2012-3-1,21,11,1,12,8,-1,88,76,65,29.61,29.43,29.32,10,10,10,10,3,,0.00,6,,27
2012-3-2,26,20,15,22,17,11,91,79,63,29.50,29.37,29.31,10,6,2,5,1,,0.00,8,Snow,43
2012-3-3,27,22,17,23,20,12,93,85,78,29.71,29.64,29.51,10,4,1,9,4,,0.11,8,Snow,230
2012-3-4,21,12,0,11,3,-4,87,64,48,30.12,29.94,29.74,10,10,9,6,3,,0.00,3,Snow,334
2012-3-5,16,6,-4,12,5,-8,92,83,77,30.13,29.97,29.79,10,6,1,6,1,,0.00,6,Fog-Snow,5
2012-3-6,26,20,15,19,16,12,93,86,69,29.87,29.82,29.79,10,6,1,5,1,,0.11,7,Snow,243
2012-3-7,26,16,5,18,13,2,100,78,58,29.95,29.91,29.88,10,10,2,6,2,,0.00,4,Snow,350
2012-3-8,21,11,1,12,7,-1,96,81,50,29.86,29.56,29.07,10,7,0,7,2,,0.00,2,Fog-Snow,46
2012-3-9,21,13,5,15,10,4,95,75,58,29.38,29.23,29.06,10,8,3,6,3,,0.00,5,Snow,182
2012-3-10,19,14,8,9,5,0,85,66,47,29.39,29.35,29.29,10,8,2,8,3,,0.00,5,Snow,4
2012-3-11,21,12,3,6,0,-2,84,56,44,29.51,29.38,29.30,10,10,10,7,3,,0.00,4,,27
2012-3-12,19,8,-4,4,-1,-8,87,68,46,29.53,29.38,29.11,10,10,10,5,1,,0.00,1,,17
2012-3-13,25,12,-2,11,4,-6,87,67,46,29.10,29.05,29.03,10,10,10,8,3,,0.00,5,,10
2012-3-14,30,26,19,25,18,10,93,77,58,29.09,29.05,29.02,10,7,0,8,4,,0.05,8,Fog-Snow-Tornado,297
2012-3-15,33,22,12,19,14,8,92,77,48,29.09,29.07,29.04,10,10,10,5,1,,0.00,5,,66
2012-3-16,30,16,5,22,13,3,96,80,54,29.40,29.26,29.10,10,9,0,7,2,,0.00,4,Fog,192
2012-3-17,28,17,6,16,9,3,92,74,51,29.62,29.51,29.41,10,10,7,5,1,,0.00,3,,313
2012-3-18,28,16,5,18,10,1,92,78,58,29.64,29.62,29.59,10,10,10,6,1,,0.00,4,,302
2012-3-19,30,20,9,20,14,6,93,77,56,29.61,29.59,29.57,10,10,9,6,1,,0.00,6,,324
2012-3-20,27,16,7,12,9,4,92,74,51,29.60,29.52,29.45,10,10,10,5,0,,0.00,2,,273
2012-3-21,28,14,1,12,5,-4,87,67,41,29.83,29.66,29.52,10,10,10,5,1,,0.00,2,,352
2012-3-22,26,14,3,9,4,-1,84,66,39,30.10,30.01,29.86,10,10,10,5,1,,0.00,1,,309
2012-3-23,27,14,1,19,8,-2,84,71,51,30.10,30.02,29.91,10,10,10,9,2,,0.00,4,,351
2012-3-24,37,29,21,23,20,18,89,74,57,29.94,29.91,29.87,10,10,10,7,4,,0.00,3,,9
2012-3-25,33,22,10,21,15,6,88,73,51,29.87,29.81,29.71,10,10,10,5,1,,0.00,0,,325
2012-3-26,36,24,12,18,13,8,84,64,40,29.70,29.62,29.57,10,10,10,8,2,,0.00,3,,13
2012-3-27,37,30,24,24,18,14,76,60,48,29.58,29.41,29.26,10,10,10,8,3,,0.00,6,,4
2012-3-28,45,36,28,27,23,22,82,64,43,29.26,29.15,29.05,10,10,10,7,2,,0.00,6,,3
2012-3-29,46,36,28,27,25,22,88,66,44,29.05,29.03,29.00,10,10,10,6,0,,0.00,4,,330
2012-3-30,44,33,23,29,25,19,89,70,51,29.37,29.16,29.03,10,10,10,5,0,,0.00,5,,314
2012-3-31,42,37,32,31,30,27,88,73,60,29.60,29.52,29.39,10,10,10,7,2,,0.00,6,,316